This demonstration page uses our WeatherBlox Daily Observations layout. Learn more.

Hourly Observations for February 24, 2017

Temp ( °F °C ) Dew Point ( °F °C ) Humidity (%) Winds ( mph kmh ) Pressure ( in mb ) Visibility ( mi km ) Precip ( " mm )
12:29 am 00:29 Cloudy 33 0.6 31 -0.6 92 92 N 18 30 29.65 1004 10 16.0934 0 0
12:54 am 00:54 Cloudy 33 0.6 31 -0.6 92 92 N 18 30 29.65 1004 10 16.0934 0 0
1:54 am 01:54 Cloudy 33 0.6 31 -0.6 92 92 N 21 33 29.66 1004 10 16.0934 0 0
2:46 am 02:46 Cloudy with Light Freezing Rain 33 0.6 31 -0.6 92 92 N 17 28 29.68 1005 4 6.43736 0 0.0254
2:54 am 02:54 Cloudy with Light Snow 33 0.6 31 -0.6 92 92 N 17 28 29.66 1005 3 4.82802 0 0.0254
3:01 am 03:01 Cloudy with Light Snow 34 1 32 0 93 93 N 17 28 29.65 1004 2.5 4.02335 0 0
3:41 am 03:41 Cloudy with Light Snow 32 0 31 -0.6 96 96 N 17 28 29.71 1006 1.5 2.41401 0.02 0.508
3:54 am 03:54 Windy with Snow Likely 32 0 30 -1.1 92 92 N 20 31 29.67 1005 1.25 2.011675 0.02 0.508
4:08 am 04:08 Windy with Snow Likely 30 -1 28 -2 93 93 N 20 31 29.71 1006 1.25 2.011675 0 0
4:17 am 04:17 Windy with Snow Likely 31 -0.6 29 -1.7 92 92 N 21 33 29.74 1007 1.5 2.41401 0 0.0254
4:28 am 04:28 Windy with Snow Likely 30 -1 28 -2 93 93 N 22 35 29.74 1007 1.75 2.816345 0 0
4:35 am 04:35 Windy with Snow Likely 30 -1 28 -2 93 93 N 20 31 29.74 1007 2 3.21868 0 0
4:54 am 04:54 Windy with Snow Likely 31 -0.6 29 -1.7 92 92 N 21 33 29.71 1006 2 3.21868 0 0.0254
5:07 am 05:07 Cloudy with Light Wintry Mix 30 -1 28 -2 93 93 N 22 35 29.77 1008 4 6.43736 0 0
5:36 am 05:36 Cloudy with Light Freezing Rain 31 -0.6 28 -2.2 89 89 N 26 43 29.74 1007 5 8.0467 0 0.0254
5:54 am 05:54 Cloudy with Light Freezing Rain 30 -1.1 28 -2.2 92 92 N 24 39 29.73 1007 4 6.43736 0 0.0254
6:13 am 06:13 Cloudy with Light Freezing Rain 30 -1.1 28 -2.2 92 92 N 26 43 29.77 1008 4 6.43736 0 0.0254
6:31 am 06:31 Windy with Snow Likely 29 -1.7 27 -2.8 92 92 N 28 44 29.77 1008 4 6.43736 0 0.0254
6:54 am 06:54 Windy with Snow Likely 28 -2.2 26 -3.3 92 92 N 29 46 29.75 1008 4 6.43736 0 0.0254
7:21 am 07:21 Cloudy with Light Freezing Rain 28 -2.2 25 -3.9 88 88 N 30 48 29.8 1009 3 4.82802 0 0.0254
7:50 am 07:50 Cloudy with Light Freezing Rain 27 -3 25 -4 93 93 N 33 54 29.83 1010 2.5 4.02335 0 0
7:54 am 07:54 Cloudy with Light Freezing Rain 27 -2.8 24 -4.4 89 89 N 32 52 29.79 1009 2.5 4.02335 0 0.0254
8:17 am 08:17 Windy with Snow Likely 27 -2.8 25 -3.9 92 92 N 22 35 29.83 1010 2.5 4.02335 0 0.0254
8:54 am 08:54 Windy with Snow Likely 27 -2.8 24 -4.4 89 89 N 30 48 29.83 1010 1.75 2.816345 0 0.0254
9:24 am 09:24 Windy with Snow Likely 27 -3 25 -4 93 93 N 26 43 29.85 1011 0.75 1.207005 0 0
9:44 am 09:44 Cloudy with Snow 27 -3 25 -4 93 93 N 23 37 29.88 1012 0.5 0.80467 0 0
9:54 am 09:54 Cloudy with Snow 26 -3.3 24 -4.4 92 92 N 26 43 29.85 1011 0.5 0.80467 0 0.0254
10:45 am 10:45 Cloudy with Snow 26 -3.3 23 -5 88 88 N 23 37 29.88 1012 0.5 0.80467 0 0.0254
10:54 am 10:54 Cloudy with Snow 26 -3.3 23 -5 88 88 N 18 30 29.88 1012 0.5 0.80467 0.01 0.254
11:39 am 11:39 Cloudy with Freezing Fog 26 -3.3 22 -5.6 84 84 N 28 44 29.91 1013 0.5 0.80467 0 0.0254
11:54 am 11:54 Cloudy with Freezing Fog 25 -3.9 21 -6.1 85 85 N 30 48 29.9 1012 0.5 0.80467 0 0.0254
12:06 pm 12:06 Windy with Snow Likely 25 -4 21 -6 86 86 N 30 48 29.94 1014 0.75 1.207005 0 0
12:31 pm 12:31 Windy with Snow Likely 25 -4 21 -6 86 86 NNW 25 41 29.97 1015 1 1.60934 0 0
12:41 pm 12:41 Windy with Snow Likely 26 -3.3 21 -6.1 81 81 N 30 48 29.97 1015 0.75 1.207005 0 0.0254
12:47 pm 12:47 Windy with Snow Likely 26 -3.3 22 -5.6 84 84 N 22 35 29.97 1015 1 1.60934 0 0.0254
12:54 pm 12:54 Windy with Snow Likely 26 -3.3 22 -5.6 84 84 NNW 24 39 29.91 1013 1 1.60934 0 0.0254
1:07 pm 13:07 Windy with Snow Likely 26 -3.3 21 -6.1 81 81 NNW 23 37 29.97 1015 1.25 2.011675 0 0.0254
1:17 pm 13:17 Windy with Snow Likely 25 -3.9 21 -6.1 85 85 NNW 23 37 29.97 1015 1.25 2.011675 0 0.0254
1:25 pm 13:25 Windy with Snow Likely 25 -3.9 21 -6.1 85 85 NNW 24 39 29.97 1015 1.5 2.41401 0 0.0254
1:54 pm 13:54 Windy with Snow Likely 25 -3.9 21 -6.1 85 85 NNW 29 46 29.92 1013 1.75 2.816345 0 0.0254
2:06 pm 14:06 Windy with Snow Likely 25 -4 21 -6 86 86 NNW 23 37 30 1016 1.75 2.816345 0 0
2:19 pm 14:19 Windy with Snow Likely 25 -3.9 21 -6.1 85 85 NNW 30 48 30 1016 1.75 2.816345 0 0.0254
2:54 pm 14:54 Windy with Snow Likely 25 -3.9 21 -6.1 85 85 NNW 26 43 29.94 1014 1 1.60934 0 0.0254
3:18 pm 15:18 Windy with Snow Likely 25 -4 21 -6 86 86 NNW 25 41 30 1016 1.25 2.011675 0 0
3:33 pm 15:33 Windy with Snow Likely 26 -3.3 21 -6.1 81 81 NNW 25 41 30.03 1017 2 3.21868 0 0.0254
3:44 pm 15:44 Windy with Snow Likely 27 -3 19 -7 74 74 NNW 23 37 30.03 1017 2 3.21868 0 0
3:54 pm 15:54 Windy with Snow Likely 26 -3.3 21 -6.1 81 81 NNW 24 39 29.98 1015 4 6.43736 0 0.0254
4:54 pm 16:54 Windy with Snow Likely 27 -2.8 17 -8.3 66 66 NNW 22 35 30.01 1016 10 16.0934 0 0
5:54 pm 17:54 Cloudy with Light Snow 27 -2.8 18 -7.8 69 69 NNW 18 30 30.06 1018 9 14.48406 0 0
6:54 pm 18:54 Clear with Light Snow 27 -2.8 18 -7.8 69 69 NNW 15 24 30.08 1019 9 14.48406 0 0
7:54 pm 19:54 Clear 26 -3.3 18 -7.8 71 71 NW 15 24 30.09 1019 10 16.0934 0 0
8:54 pm 20:54 Clear 25 -3.9 17 -8.3 72 72 NW 9 15 30.11 1020 10 16.0934 0 0
9:54 pm 21:54 Clear 25 -3.9 18 -7.8 75 75 NW 12 19 30.12 1020 10 16.0934 0 0
10:54 pm 22:54 Clear 26 -3.3 17 -8.3 69 69 NW 14 22 30.14 1021 10 16.0934 0 0
11:54 pm 23:54 Clear 25 -3.9 17 -8.3 72 72 NW 13 20 30.15 1021 10 16.0934 0 0

Powered by AerisWeather